Date,TemperatureHighF,TemperatureAvgF,TemperatureLowF,DewpointHighF,DewpointAvgF,DewpointLowF,HumidityHigh,HumidityAvg,HumidityLow,PressureMaxIn,PressureMinIn,WindSpeedMaxMPH,WindSpeedAvgMPH,GustSpeedMaxMPH,PrecipitationSumIn
2013-2-1,46,30,18,20,9,-2,66,43,21,30.04,29.72,14,5,16,0.00
2013-2-2,59,41,27,34,28,20,80,61,33,29.86,29.73,11,3,17,0.00
2013-2-3,58,48,36,32,27,20,80,46,24,29.89,29.51,13,6,17,0.00
2013-2-4,67,56,43,41,35,28,72,47,24,29.55,29.39,18,6,18,0.02
2013-2-5,70,48,32,44,34,24,92,63,18,29.62,29.49,9,2,9,0.00
2013-2-6,69,53,38,54,43,34,90,69,53,29.63,29.46,17,6,21,0.00
2013-2-7,65,53,43,58,50,38,98,89,74,29.72,29.40,21,7,22,0.02
2013-2-8,56,41,35,38,35,32,92,79,48,29.91,29.72,14,5,15,0.00
2013-2-9,46,42,38,43,38,34,99,88,71,29.74,29.31,22,8,22,0.05
2013-2-10,65,52,41,52,35,20,99,59,18,29.63,29.19,21,8,26,0.12
2013-2-11,60,43,33,29,26,17,73,53,22,29.81,29.62,11,4,12,0.00
2013-2-12,44,38,33,40,32,25,99,81,62,29.70,29.53,14,6,15,0.33
2013-2-13,60,42,34,40,35,30,99,77,35,29.62,29.52,13,5,15,0.05
2013-2-14,63,47,33,38,32,25,75,56,31,29.79,29.54,15,5,19,0.00
2013-2-15,50,38,30,33,18,5,76,48,19,29.99,29.78,18,7,18,0.00
2013-2-16,55,37,26,27,16,6,78,45,17,29.97,29.64,13,5,21,0.00
2013-2-17,75,52,32,36,29,21,76,45,16,29.65,29.33,22,7,22,0.00
2013-2-18,65,55,38,53,40,27,78,57,33,29.73,29.20,27,12,31,0.00
2013-2-19,61,41,27,29,23,16,80,50,20,29.93,29.73,11,4,12,0.00
2013-2-20,39,36,33,36,30,21,99,80,51,29.85,29.57,14,5,16,0.43
2013-2-21,36,34,27,35,33,20,99,97,73,29.57,29.25,19,5,21,0.98
2013-2-22,44,29,22,24,19,17,82,68,43,29.72,29.53,12,5,18,0.00
2013-2-23,56,35,21,28,21,16,83,60,27,29.71,29.52,7,3,9,0.00
2013-2-24,66,46,30,42,33,24,81,63,36,29.55,29.33,20,6,23,0.00
2013-2-25,46,39,33,40,36,33,99,90,69,29.39,29.05,27,10,30,1.18
2013-2-26,44,37,33,38,34,30,99,89,76,29.49,29.06,22,9,23,0.24
2013-2-27,51,37,32,35,30,27,91,75,45,29.73,29.48,21,7,21,0.00
2013-2-28,52,39,31,35,29,26,87,69,47,29.81,29.72,14,7,17,0.00